COSMOS 1275 DEB, 42170

Orbit data source: Space-Track

COSMOS 1275 DEB, 42170 is space debris in LEO originally from a launch on Thu, 04 Jun 1981 UTC launched from the Plesetsk Missile And Space Complex (PKMTR). Debris objects in space refer to the collection of defunct objects orbiting the Earth. Examples of debris include non-operational satellites, rocket bodies, and fragments generated from explosions, collisions, or faulty payload assembly.

Loading next visibility...
Identifier
42170, 1981-053SJ
Orbit
LEO
Country
Flag of CISCIS
Related business
Manufacturer
Unknown
Mission
Spacecraft
Bus & Motor
Unknown
Mass
Unknown
Launch date (UTC)
1981-06-04 (45 years ago)
Launch vehicle
Unknown
Launch site
Plesetsk Missile And Space Complex (PKMTR)
Object type
Payload
Rocket body
Debris
Shape & HBR
Unknown shape, 0.1 m
Radar Cross Section
Small (<0.1 m²)

Expand to show TLE details & history
Last TLE update: 1 day ago

TLE from 1 day ago
0 COSMOS 1275 DEB
1 42170U 81053SJ  26103.87227117  .00000552  00000-0  76594-3 0  9994
2 42170  82.7647 322.8028 0193486 135.1862 226.5092 13.48861098576611
Epoch: 2026-04-13T20:56Z
TLE epoch observation values (Epoch: 2026-04-13T20:56:04.229Z)
Latitude
-0.00004°
Longitude
166.72853°
Altitude
1,180.041 km
Speed
7.214 km/s
True Right ascension
21h 31m 12s
True Declination
0° 00' 00"
Sunlit
Object was in daylight at epoch
Visualization orbit readout
Latitude
Unknown
Longitude
Unknown
Altitude
Unknown
Speed
Unknown
Apparent Right ascension
Unknown
Apparent Declination
Unknown
Sunlit
N/A
Visualization observer readout
Local Sidereal Time
06:12:46
Azimuth
Unknown
Elevation
Unknown
Doppler factor
Unknown
Orbital elements
Apogee altitude
1,217.824 km
Perigee altitude
929.461 km
Semi-major axis
7,451.779 km
Eccentricity
0.01935
Inclination
82.7647°
RAAN
322.8028°
Arg. of periapsis
135.1862°
True anomaly
224.92722°
Mean anomaly
226.5092°
Eccentric anomaly
225.71558°
Mean motion
3.37406 °/min
Orbital period
106.7 mins
BSTAR
0.00076594
Loading maneuver chart data...
Computing Atmospheric mass density...
Loading historical data...
Loading historical data...
Loading historical data...
Loading historical data...
Loading historical data...
Loading historical data...
Loading historical data...

Documentation

Showing up to 5 results
|